星链-36985(STARLINK-36985)

导读

STARLINK-36985(NORAD编号68014)是SpaceX星链(Starlink)卫星星座的成员之一,属于第二代星链卫星,主要承担全球低轨宽带互联网覆盖服务,可支持流媒体、在线游戏、高清视频通话等应用。作为SpaceX大规模星座部署的一部分,它配备氩气离子推进系统与相控阵天线,具备轨道机动能力,当前纳入SpaceX 2026年降轨计划,将从550公里轨道降至480公里,旨在提升太空安全,减少碰撞风险与轨道碎片,避免凯斯勒效应的潜在威胁,助力近地轨道可持续利用。

基本信息
目录编号:
68014
目录名称:
STARLINK-36985
国际标识:
2026-039AE
轨道中心:
EARTH
卫星名称:
星链-36985
卫星全名:
星链-36985(STARLINK-36985)
卫星状态:
在轨 (已飞行151 天)
发射日期:
2026-02-27 UTC
国别 :
美国 (US)
星等 :
--
轨道信息
数据来源 国际轨道数据
星历时间: 2026-07-27T17:37:21+0800
16小时前
查看轨道信息
半长轴: 6861.079km
偏心率: 0.0004842
轨道倾角: 43.001°
近地点辐角 140.679°
升交点赤经 339.618°
平近点角 219.441°
近地点: 479.619km
远地点: 486.265km
周期: 94.265分钟
每日圈数: 15.27616
详细信息
固有亮度:
5
最大亮度:
2.5
卫星平台:
Starlink V1.0
覆盖范围:
全球
运营商:
太空探索技术公司
运营商所在国:
美国
制造商(研发单位):
太空探索技术公司
制造商所在国:
美国
使用方式:
暂无
卫星简介
Starlink 计划是 SpaceX 推出的全球卫星互联网项目,通过发射低轨道卫星,为全球尤其是偏远地区提供高速、低延迟的互联网服务。自 2019 年起,Starlink 已部署数千颗卫星,旨在缩小全球数字鸿沟,推动互联网普及。该项目还为军事、航空等行业提供通信支持,带来广泛经济效益。
2D轨道图
3D轨道图
轨道高度分析图
轨道倾角分析图
轨道综合分析图
查看轨道综合分析图